All Stations Radar Satellite Rainfall Station Map Enhanced Site
Observations: Wind Gusts Humidity Temperature    
Forecasts: Wind Gusts Humidity Temperature    

Valley Center (907, 908, 909, 1030, 6926) Station Data (Station Map)

Red Flag Warning: No
Fire Weather Zone: 250
SDGE Region: North East
Lat/Lon: 33.236/-117.001

Observations

Time (PDT)Wind Spd/GustTempRHFuel Moisture
9/2 11:40amWNW 3 G 984°33%-
9/2 11:30amWNW 5 G 984°35%-
9/2 11:20amWNW 3 G 783°37%-
9/2 11:10amWSW 2 G 882°37%-
9/2 11:00amW 4 G 681°39%-
9/2 10:50amWNW 4 G 780°41%-
9/2 10:40amW 3 G 879°41%-
9/2 10:30amW 2 G 678°43%-
9/2 10:20amW 3 G 677°42%-
9/2 10:10amW 3 G 676°43%-
9/2 10:00amSW 1 G 675°48%-
9/2 9:50amW 1 G 474°57%-
9/2 9:40amNW 1 G 272°62%-
9/2 9:30amS 1 G 371°70%-
9/2 9:20amSSW 1 G 267°99%-
9/2 9:10amSSE 1 G 365°100%-
9/2 9:00amS 1 G 363°100%-
9/2 8:50amSSE 1 G 361°100%-
9/2 8:40amS 1 G 460°100%-
9/2 8:30amSSW 1 G 260°100%-
9/2 8:20amSE 1 G 160°100%-
9/2 8:10amNE 1 G 159°100%-
9/2 8:00amNNW 1 G 259°100%-
9/2 7:50amN 1 G 259°100%-
9/2 7:40amNE 1 G 159°100%-
9/2 7:30amESE 1 G 259°100%-
9/2 7:20amSSE 1 G 259°100%-
9/2 7:10amSE 1 G 159°100%-
9/2 7:00amE 1 G 259°100%-
9/2 6:50amENE 1 G 259°100%-
9/2 6:40amENE 1 G 259°100%-
9/2 6:30amN 1 G 260°100%-
9/2 6:20amN 1 G 160°100%-
9/2 6:10amNNW 1 G 259°100%-
9/2 6:00amN 1 G 259°100%-
9/2 5:50amN 1 G 259°100%-
9/2 5:40amN 1 G 259°100%-
9/2 5:30amENE 1 G 259°100%-
9/2 5:20amS 1 G 360°100%-
9/2 5:10amWSW 1 G 160°100%-
9/2 5:00amSSE 1 G 260°100%-
9/2 4:50amSSE 1 G 260°100%-
9/2 4:40amSE 1 G 160°100%-
9/2 4:30amE 1 G 260°100%-
9/2 4:20amENE 1 G 260°100%-
9/2 4:10amENE 1 G 360°100%-
9/2 4:00amE 1 G 260°100%-
9/2 3:50amE 1 G 161°100%-
9/2 3:40amNE 1 G 260°100%-
9/2 3:30amNE 1 G 160°100%-
9/2 3:20amENE 1 G 160°100%-
9/2 3:10amN 1 G 160°100%-
9/2 3:00amNNE 1 G 159°100%-
9/2 2:50amNE 1 G 259°100%-
9/2 2:40amNE 1 G 258°100%-
9/2 2:30amNNE 1 G 158°100%-
9/2 2:20amN 1 G 158°100%-
9/2 2:10amNNW 1 G 159°100%-
9/2 2:00amN 1 G 159°100%-
9/2 1:50amNNW 1 G 159°100%-
9/2 1:40amN 1 G 159°100%-
9/2 1:30amNNE 1 G 160°100%-
9/2 1:20amN 1 G 160°100%-
9/2 1:10amN 1 G 260°100%-
9/2 1:00amNNE 1 G 160°100%-
9/2 12:50amNNE 1 G 161°100%-
9/2 12:40amNNE 1 G 161°100%-
9/2 12:30amNE 1 G 161°100%-
9/2 12:20amNE 1 G 160°100%-
9/2 12:10amNE 1 G 160°100%-
9/2 12:00amNNE 1 G 161°100%-
9/1 11:50pmSW 1 G 162°100%-
9/1 11:40pmSW 1 G 162°99%-
9/1 11:30pmNW 1 G 162°96%-
9/1 11:20pmNNW 1 G 162°86%-
9/1 11:10pmNNW 1 G 162°82%-
9/1 11:00pmNNW 1 G 163°82%-
9/1 10:50pmNNW 1 G 164°80%-
9/1 10:40pmNNW 1 G 164°79%-
9/1 10:30pmN 1 G 265°76%-
9/1 10:20pmNNE 1 G 165°75%-
9/1 10:10pmNNE 1 G 165°74%-
9/1 10:00pmNNE 1 G 166°74%-
9/1 9:50pmN 1 G 166°75%-
9/1 9:40pmNNW 1 G 166°74%-
9/1 9:30pmNNW 1 G 167°73%-
9/1 9:20pmNNW 1 G 168°72%-
9/1 9:10pmNNW 1 G 168°71%-
9/1 9:00pmNW 1 G 169°70%-
9/1 8:50pmSW 1 G 169°69%-
9/1 8:40pmSW 1 G 170°68%-
9/1 8:30pmWSW 1 G 171°67%-
9/1 8:20pmWSW 1 G 171°66%-
9/1 8:10pmW 1 G 372°65%-
9/1 8:00pmNW 1 G 372°63%-
9/1 7:50pmNW 3 G 473°62%-
9/1 7:40pmNW 2 G 474°61%-
9/1 7:30pmNW 3 G 575°58%-
9/1 7:20pmWNW 2 G 476°55%-
9/1 7:10pmW 2 G 477°52%-
9/1 7:00pmWNW 3 G 579°49%-
9/1 6:50pmWNW 2 G 480°45%-
9/1 6:40pmW 3 G 581°43%-
9/1 6:30pmW 3 G 581°42%-
9/1 6:20pmWNW 3 G 682°41%-
9/1 6:10pmW 3 G 782°41%-
9/1 6:00pmW 6 G 982°41%-
9/1 5:50pmW 4 G 1084°33%-
9/1 5:40pmSW 2 G 686°27%-
9/1 5:30pmSSW 3 G 786°27%-
9/1 5:20pmSSW 3 G 1086°26%-
9/1 5:10pmSSW 3 G 987°23%-
9/1 5:00pmSSW 4 G 1187°21%-
9/1 4:50pmSSW 4 G 1088°21%-
9/1 4:40pmSSW 3 G 888°22%-
9/1 4:30pmSSW 4 G 1087°22%-
9/1 4:20pmSSW 4 G 1187°22%-
9/1 4:10pmSW 4 G 1287°23%-
9/1 4:00pmSW 6 G 1388°23%-
9/1 3:50pmSSW 4 G 1488°22%-
9/1 3:40pmSSW 5 G 1188°23%-
9/1 3:30pmSSW 5 G 1288°22%-
9/1 3:20pmS 5 G 1589°22%-
9/1 3:10pmSSW 4 G 1188°23%-
9/1 3:00pmSSW 4 G 1188°22%-
9/1 2:50pmSSW 4 G 1189°22%-
9/1 2:40pmSSW 5 G 1388°22%-
9/1 2:30pmSSW 5 G 989°23%-
9/1 2:20pmS 4 G 1089°22%-
9/1 2:10pmS 5 G 1189°22%-
9/1 2:00pmSSW 5 G 1088°23%-
9/1 1:50pmSSW 4 G 1089°23%-
9/1 1:40pmSSW 4 G 1189°24%-
9/1 1:30pmSSW 3 G 889°23%-
9/1 1:20pmSSW 4 G 989°23%-
9/1 1:10pmS 4 G 1189°22%-
9/1 1:00pmS 5 G 1288°23%-
9/1 12:50pmS 6 G 1487°23%-
9/1 12:40pmSSW 5 G 1487°24%-
9/1 12:30pmSSW 6 G 1186°24%-
9/1 12:20pmSSW 4 G 1186°23%-
9/1 12:10pmSSW 5 G 1286°22%-
9/1 12:00pmSSW 5 G 1186°21%-
9/1 11:50amS 5 G 1386°19%-
9/1 11:40amSSW 4 G 1087°18%-
9/1 11:30amSSW 4 G 1186°18%-
9/1 11:20amSSW 4 G 1086°18%-
9/1 11:10amSSW 4 G 1186°17%-
9/1 11:00amSSW 4 G 886°19%-
9/1 10:50amSW 5 G 1186°19%-
9/1 10:40amSW 5 G 1186°18%-
9/1 10:30amSW 5 G 1086°18%-
9/1 10:20amSW 4 G 986°18%-
9/1 10:10amSW 4 G 985°19%-
9/1 10:00amSW 4 G 884°20%-
9/1 9:50amSW 4 G 983°23%-
9/1 9:40amW 3 G 782°27%-
9/1 9:30amW 3 G 581°29%-
9/1 9:20amSW 1 G 481°30%-
9/1 9:10amSSW 1 G 380°31%-
9/1 9:00amS 1 G 279°34%-
9/1 8:50amE 1 G 277°41%-
9/1 8:40amESE 1 G 275°47%-
9/1 8:30amSSE 1 G 174°49%-
9/1 8:20amSSE 1 G 173°52%-
9/1 8:10amE 1 G 171°58%-
9/1 8:00amSE 1 G 268°64%-
9/1 7:50amSE 1 G 267°68%-
9/1 7:40amNE 1 G 168°68%-
9/1 7:30amNE 1 G 164°72%-
9/1 7:20amNE 1 G 162°72%-
9/1 7:10amNNE 1 G 159°80%-
9/1 7:00amNNE 1 G 157°97%-
9/1 6:50amNNE 1 G 256°100%-
9/1 6:40amNNE 1 G 255°100%-
9/1 6:30amN 1 G 155°100%-
9/1 6:20amNNE 1 G 155°100%-
9/1 6:10amNNE 1 G 156°100%-
9/1 6:00amN 1 G 157°100%-